Perry, IA

9:53 PM CST on December 09, 2016 (GMT -0600)
Perry Municipal

Weather History for KPRO - March, 2013

Change the Weather History Date:

Monday, March 18, 2013

  Actual Average Record
Temperature  
Mean Temperature 28 °F -  
Max Temperature 33 °F 44 °F 82 °F (2012)
Min Temperature 21 °F 26 °F 4 °F (1965)
Degree Days  
Heating Degree Days 38    
Moisture  
Dew Point 23 °F    
Average Humidity 81    
Maximum Humidity 100    
Minimum Humidity 68    
Precipitation  
Precipitation 0.04 in - - ()
Sea Level Pressure  
Sea Level Pressure 29.83 in    
Wind  
Wind Speed 13 mph (West)    
Max Wind Speed 31 mph    
Max Gust Speed 38 mph    
Visibility 8 miles    
Events Snow    
Averages and records for this station are not official NWS values.
T = Trace of Precipitation, MM = Missing Value Source: NWS Daily Summary

Daily Weather History Graph

Daily Weather History Graph

Search for Another Location

Airport or City:

Trip Planner

Search our weather history database for the weather conditions in past years. The results will help you decide how hot, cold, wet, or windy it might be!

Date:

Astronomy

Mar. 18, 2013 Rise Set
Actual Time 7:22 AM CDT 7:26 PM CDT
Civil Twilight 6:55 AM CDT 7:54 PM CDT
Nautical Twilight 6:22 AM CDT 8:27 PM CDT
Astronomical Twilight 5:49 AM CDT 9:00 PM CDT
Moon 11:18 AM CDT (3/18) 1:31 AM CDT (3/18)
Length of Visible Light 12h 59m
Length of Day
12h 04m
Waxing Crescent, 41% of the Moon is Illuminated
Mar 18
Waxing Crescent
Mar 19
First Quarter
Mar 27
Full
Apr 2
Last Quarter
Apr 10
New

Hourly Weather History & Observations

Time (CDT) Temp. Windchill Dew Point Humidity Pressure Visibility Wind Dir Wind Speed Gust Speed Precip Events Conditions
12:15 AM 32.0 °F 24.8 °F 29.3 °F 90% 29.82 in 7.0 mi ESE 8.1 mph - N/A Snow Light Snow
12:55 AM 32.0 °F 25.6 °F 29.7 °F 91% 29.81 in 7.0 mi SE 6.9 mph - N/A   Overcast
1:15 AM 32.0 °F 24.2 °F 29.8 °F 92% 29.81 in 5.0 mi SE 9.2 mph - N/A   Overcast
1:35 AM 32.0 °F 25.6 °F 30.7 °F 95% 29.82 in 3.0 mi SSE 6.9 mph - N/A   Light Drizzle
1:55 AM 31.8 °F 26.2 °F 30.9 °F 96% 29.80 in 2.0 mi SE 5.8 mph - N/A Snow Light Snow
2:15 AM 31.5 °F 22.9 °F 30.9 °F 98% 29.77 in 2.0 mi ESE 10.4 mph - N/A Snow Light Snow
2:35 AM 31.1 °F 23.1 °F 30.6 °F 98% 29.77 in 3.0 mi SE 9.2 mph - N/A Snow Light Snow
2:55 AM 31.1 °F 23.7 °F 30.7 °F 99% 29.76 in 4.0 mi SE 8.1 mph - N/A   Mostly Cloudy
3:15 AM 31.3 °F 22.7 °F 30.7 °F 98% 29.75 in 5.0 mi SE 10.4 mph - N/A   Overcast
3:35 AM 31.5 °F 22.9 °F 30.7 °F 97% 29.74 in 5.0 mi SE 10.4 mph - N/A   Overcast
3:55 AM 31.5 °F 20.9 °F 30.7 °F 97% 29.72 in 3.0 mi SE 15.0 mph - N/A Snow Light Snow
4:15 AM 31.5 °F 20.9 °F 30.7 °F 97% 29.72 in 3.0 mi SSE 15.0 mph - N/A   Overcast
4:35 AM 31.5 °F 22.9 °F 30.9 °F 98% 29.72 in 3.0 mi SSE 10.4 mph - N/A Snow Light Snow
4:55 AM 31.6 °F 24.4 °F 30.9 °F 97% 29.75 in 2.5 mi SSW 8.1 mph - N/A Snow Light Snow
5:15 AM 31.5 °F 24.9 °F 31.1 °F 99% 29.74 in 1.2 mi South 6.9 mph - 0.03 in Snow Light Snow
5:35 AM 31.5 °F 26.8 °F 31.1 °F 99% 29.73 in 1.2 mi South 4.6 mph - 0.03 in Snow Light Snow
5:55 AM 31.1 °F 26.4 °F 31.1 °F 100% 29.73 in 1.8 mi South 4.6 mph - 0.03 in Snow Light Snow
6:15 AM 31.3 °F 26.6 °F 31.1 °F 99% 29.72 in 1.0 mi South 4.6 mph - 0.01 in Snow Light Snow
6:35 AM 31.5 °F 25.8 °F 31.3 °F 99% 29.72 in 1.8 mi South 5.8 mph - 0.01 in   Overcast
6:55 AM 31.8 °F 25.4 °F 31.6 °F 99% 29.72 in 2.0 mi South 6.9 mph - 0.01 in   Overcast
7:15 AM 32.0 °F 25.6 °F 31.8 °F 99% 29.72 in 2.0 mi South 6.9 mph - N/A   Overcast
7:35 AM 32.0 °F 24.8 °F 32.0 °F 100% 29.71 in 3.0 mi SW 8.1 mph - N/A   Overcast
7:55 AM 32.0 °F 24.8 °F 32.0 °F 100% 29.71 in 4.0 mi SW 8.1 mph - N/A   Overcast
8:15 AM 32.9 °F 23.7 °F 32.0 °F 96% 29.71 in 7.0 mi West 12.7 mph - N/A   Overcast
8:35 AM 33.3 °F 24.1 °F 32.0 °F 95% 29.72 in 10.0 mi West 12.7 mph - N/A   Overcast
8:55 AM 32.4 °F 19.1 °F 27.1 °F 81% 29.73 in 10.0 mi WNW 25.3 mph 35.7 mph N/A   Overcast
9:15 AM 31.1 °F 20.1 °F 25.5 °F 80% 29.74 in 10.0 mi WNW 16.1 mph 28.8 mph N/A   Mostly Cloudy
9:35 AM 31.5 °F 20.9 °F 25.3 °F 78% 29.74 in 10.0 mi WNW 15.0 mph 27.6 mph N/A   Mostly Cloudy
9:55 AM 31.1 °F 18.6 °F 25.7 °F 80% 29.75 in 10.0 mi WNW 20.7 mph 27.6 mph N/A   Overcast
10:15 AM 30.4 °F 18.0 °F 23.5 °F 76% 29.76 in 10.0 mi WNW 19.6 mph 29.9 mph N/A   Overcast
10:35 AM 29.7 °F 17.1 °F 22.8 °F 76% 29.77 in 10.0 mi WNW 19.6 mph 32.2 mph N/A   Mostly Cloudy
10:55 AM 29.5 °F 16.5 °F 22.3 °F 75% 29.77 in 10.0 mi NW 20.7 mph 25.3 mph N/A   Clear
11:15 AM 29.1 °F 17.1 °F 21.9 °F 74% 29.77 in 10.0 mi WNW 17.3 mph 24.2 mph N/A   Clear
11:35 AM 28.2 °F 14.2 °F 19.6 °F 70% 29.79 in 10.0 mi NW 23.0 mph 29.9 mph N/A   Scattered Clouds
11:55 AM 28.0 °F 14.9 °F 19.9 °F 72% 29.80 in 10.0 mi NW 19.6 mph 31.1 mph N/A   Mostly Cloudy
12:15 PM 28.2 °F 14.8 °F 21.4 °F 76% 29.81 in 10.0 mi WNW 20.7 mph 27.6 mph N/A   Overcast
12:35 PM 27.5 °F 13.5 °F 18.3 °F 68% 29.82 in 10.0 mi WNW 21.9 mph 33.4 mph N/A   Mostly Cloudy
12:55 PM 26.8 °F 11.9 °F 18.3 °F 70% 29.83 in 10.0 mi WNW 24.2 mph 36.8 mph N/A   Scattered Clouds
1:15 PM 26.2 °F 11.9 °F 18.3 °F 72% 29.84 in 10.0 mi WNW 21.9 mph 29.9 mph N/A   Overcast
1:35 PM 26.2 °F 11.2 °F 17.6 °F 70% 29.84 in 10.0 mi WNW 24.2 mph 32.2 mph N/A   Overcast
1:55 PM 25.7 °F 11.2 °F 18.3 °F 74% 29.85 in 10.0 mi WNW 21.9 mph 32.2 mph N/A   Overcast
2:15 PM 25.0 °F 8.1 °F 18.0 °F 75% 29.86 in 10.0 mi WNW 29.9 mph 36.8 mph N/A Snow Light Snow
2:35 PM 26.2 °F 11.9 °F 18.3 °F 72% 29.86 in 10.0 mi NW 21.9 mph 32.2 mph N/A   Overcast
2:55 PM 25.5 °F 11.3 °F 17.4 °F 71% 29.86 in 10.0 mi NW 20.7 mph 27.6 mph N/A   Overcast
3:15 PM 25.3 °F 10.7 °F 18.5 °F 75% 29.86 in 7.0 mi WNW 21.9 mph 33.4 mph N/A Snow Light Snow
3:35 PM 25.2 °F 9.2 °F 18.0 °F 74% 29.87 in 7.0 mi WNW 26.5 mph 32.2 mph N/A Snow Light Snow
3:55 PM 25.2 °F 8.1 °F 16.2 °F 69% 29.88 in 10.0 mi WNW 31.1 mph 38.0 mph N/A   Overcast
4:15 PM 25.3 °F 11.4 °F 16.5 °F 69% 29.89 in 10.0 mi NW 19.6 mph 31.1 mph N/A   Mostly Cloudy
4:35 PM 25.3 °F 10.3 °F 16.7 °F 70% 29.89 in 10.0 mi WNW 23.0 mph 28.8 mph N/A   Mostly Cloudy
4:55 PM 25.2 °F 9.2 °F 16.9 °F 71% 29.89 in 10.0 mi WNW 26.5 mph 32.2 mph N/A   Overcast
5:15 PM 25.3 °F 10.7 °F 16.5 °F 69% 29.90 in 10.0 mi NW 21.9 mph 27.6 mph N/A   Overcast
5:35 PM 25.5 °F 11.3 °F 16.3 °F 68% 29.90 in 10.0 mi WNW 20.7 mph 28.8 mph N/A   Overcast
5:55 PM 25.7 °F 10.5 °F 16.5 °F 68% 29.91 in 10.0 mi WNW 24.2 mph 31.1 mph N/A   Overcast
6:15 PM 26.1 °F 12.3 °F 16.9 °F 68% 29.92 in 10.0 mi WNW 19.6 mph 27.6 mph N/A   Overcast
6:35 PM 25.7 °F 11.9 °F 17.4 °F 71% 29.92 in 10.0 mi WNW 19.6 mph 25.3 mph N/A   Mostly Cloudy
6:55 PM 25.7 °F 13.5 °F 17.6 °F 71% 29.92 in 10.0 mi NW 15.0 mph 26.5 mph N/A   Mostly Cloudy
7:15 PM 25.7 °F 12.7 °F 17.4 °F 71% 29.92 in 10.0 mi WNW 17.3 mph - N/A   Scattered Clouds
7:35 PM 25.3 °F 14.1 °F 18.0 °F 74% 29.93 in 10.0 mi NW 12.7 mph - N/A   Clear
7:55 PM 25.2 °F 13.3 °F 18.1 °F 75% 29.93 in 10.0 mi WNW 13.8 mph 20.7 mph N/A   Clear
8:15 PM 25.2 °F 12.9 °F 17.8 °F 74% 29.94 in 10.0 mi WNW 15.0 mph 23.0 mph N/A   Clear
8:35 PM 25.2 °F 12.4 °F 17.4 °F 72% 29.96 in 10.0 mi WNW 16.1 mph 23.0 mph N/A   Clear
8:55 PM 24.8 °F 12.9 °F 16.9 °F 72% 29.96 in 10.0 mi NW 13.8 mph 21.9 mph N/A   Clear
9:15 PM 24.4 °F 11.9 °F 16.5 °F 72% 29.97 in 10.0 mi NW 15.0 mph - N/A   Clear
9:35 PM 23.9 °F 11.2 °F 16.9 °F 75% 29.98 in 10.0 mi NW 15.0 mph 19.6 mph N/A   Clear
9:55 PM 23.9 °F 10.3 °F 15.8 °F 71% 29.98 in 10.0 mi NW 17.3 mph 24.2 mph N/A   Clear
10:15 PM 23.5 °F 9.4 °F 15.3 °F 71% 29.99 in 10.0 mi NW 18.4 mph 24.2 mph N/A   Clear
10:35 PM 23.0 °F 9.6 °F 15.1 °F 72% 29.99 in 10.0 mi NW 16.1 mph 24.2 mph N/A   Clear
10:55 PM 22.8 °F 9.4 °F 15.3 °F 73% 29.99 in 10.0 mi NW 16.1 mph 21.9 mph N/A   Clear
11:15 PM 22.5 °F 9.4 °F 14.7 °F 72% 29.99 in 10.0 mi NW 15.0 mph 24.2 mph N/A   Clear
11:35 PM 21.9 °F 8.2 °F 14.2 °F 72% 29.97 in 10.0 mi NNW 16.1 mph 23.0 mph N/A   Clear